Location: Newark
(39.6867°N, 100.6772°W)
Time: 08:33:51
(UTC+00:00)

Transit 2A - Pass Details

Date: 30 October 2019
Orbit: 601 x 957 km, 66.7° (Epoch: 20 November)

Event Time Altitude Azimuth Distance (km) Brightness Sun altitude
Rises 01:20:27 0° 262° (W) 3,249 10.9 -19.0°
Reaches altitude 10° 01:24:28 10° 291° (WNW) 2,233 9.4 -19.7°
Maximum altitude 01:26:34 12° 316° (NW) 2,022 8.7 -20.2°
Drops below altitude 10° 01:28:37 10° 341° (NNW) 2,145 8.5 -20.5°
Sets 01:32:18 0° 12° (NNE) 2,989 9.0 -21.3°
